Time,TemperatureF,DewpointF,PressureIn,WindDirection,WindDirectionDegrees,WindSpeedMPH,WindSpeedGustMPH,Humidity,HourlyPrecipIn,Conditions,Clouds,dailyrainin,SoftwareType,DateUTC
2013-05-29 00:01:00,56.5,56.5,30.09,West,278,0.0,0.0,100,0.00,,---,0.00,VWS V14.01,2013-05-29 04:01:00,
2013-05-29 00:06:00,56.5,56.5,30.09,West,278,0.0,0.0,100,0.00,,---,0.00,VWS V14.01,2013-05-29 04:06:00,
2013-05-29 00:11:00,56.5,56.5,30.09,West,278,0.0,0.0,100,0.00,,---,0.00,VWS V14.01,2013-05-29 04:11:00,
2013-05-29 00:16:00,56.5,56.5,30.09,West,278,0.0,0.0,100,0.00,,---,0.00,VWS V14.01,2013-05-29 04:16:00,
2013-05-29 00:21:00,56.5,56.5,30.09,West,278,0.0,0.0,100,0.00,,---,0.00,VWS V14.01,2013-05-29 04:21:00,
2013-05-29 00:26:00,56.5,56.5,30.09,West,278,0.0,0.0,100,0.00,,---,0.00,VWS V14.01,2013-05-29 04:26:00,
2013-05-29 00:31:00,56.5,56.5,30.09,West,278,0.0,0.0,100,0.00,,---,0.00,VWS V14.01,2013-05-29 04:31:00,
2013-05-29 00:36:00,56.5,56.5,30.09,West,278,0.0,0.0,100,0.00,,---,0.00,VWS V14.01,2013-05-29 04:36:00,
2013-05-29 00:41:00,56.5,56.5,30.09,West,278,0.0,0.0,100,0.00,,---,0.00,VWS V14.01,2013-05-29 04:41:00,
2013-05-29 00:46:00,56.5,56.5,30.09,West,278,0.0,0.0,100,0.00,,---,0.00,VWS V14.01,2013-05-29 04:46:00,
2013-05-29 00:51:00,56.4,56.4,30.09,West,278,0.0,0.0,100,0.00,,---,0.00,VWS V14.01,2013-05-29 04:51:00,
2013-05-29 00:56:00,56.5,56.5,30.09,West,278,0.0,0.0,100,0.00,,---,0.00,VWS V14.01,2013-05-29 04:56:00,
2013-05-29 01:01:00,56.5,56.5,30.09,West,278,0.0,0.0,100,0.00,,---,0.00,VWS V14.01,2013-05-29 05:01:00,
2013-05-29 01:06:00,56.5,56.5,30.09,West,278,0.0,0.0,100,0.00,,---,0.00,VWS V14.01,2013-05-29 05:06:00,
2013-05-29 01:11:00,56.5,56.5,30.09,West,271,0.0,0.0,100,0.00,,---,0.00,VWS V14.01,2013-05-29 05:11:00,
2013-05-29 01:16:00,56.5,56.5,30.09,West,271,0.0,0.0,100,0.00,,---,0.00,VWS V14.01,2013-05-29 05:16:00,
2013-05-29 01:21:00,56.7,56.7,30.09,West,273,0.0,0.0,100,0.00,,---,0.00,VWS V14.01,2013-05-29 05:21:00,
2013-05-29 01:26:00,56.7,56.7,30.09,West,273,0.0,0.0,100,0.00,,---,0.00,VWS V14.01,2013-05-29 05:26:00,
2013-05-29 01:31:00,56.7,56.7,30.09,West,273,0.0,0.0,100,0.00,,---,0.00,VWS V14.01,2013-05-29 05:31:00,
2013-05-29 01:36:00,56.5,56.5,30.09,NNW,342,0.0,0.0,100,0.00,,---,0.00,VWS V14.01,2013-05-29 05:36:00,
2013-05-29 01:41:00,56.4,56.4,30.09,East,96,0.0,0.0,100,0.00,,---,0.00,VWS V14.01,2013-05-29 05:41:00,
2013-05-29 01:46:00,56.4,56.4,30.09,East,96,0.0,0.0,100,0.04,,---,0.04,VWS V14.01,2013-05-29 05:46:00,
2013-05-29 01:51:00,56.2,56.2,30.06,ENE,67,0.0,0.0,100,0.04,,---,0.04,VWS V14.01,2013-05-29 05:51:00,
2013-05-29 01:56:00,56.2,56.2,30.06,ENE,64,0.0,0.0,100,0.04,,---,0.04,VWS V14.01,2013-05-29 05:56:00,
2013-05-29 02:01:00,56.4,56.4,30.06,ENE,64,0.0,0.0,100,0.04,,---,0.04,VWS V14.01,2013-05-29 06:01:00,
2013-05-29 02:06:00,56.2,56.2,30.06,NE,56,0.0,0.0,100,0.04,,---,0.04,VWS V14.01,2013-05-29 06:06:00,
2013-05-29 02:11:00,56.4,56.4,30.06,NNW,327,0.0,3.6,100,0.04,,---,0.04,VWS V14.01,2013-05-29 06:11:00,
2013-05-29 02:16:00,56.4,56.4,30.06,NNW,336,0.0,0.0,100,0.04,,---,0.04,VWS V14.01,2013-05-29 06:16:00,
2013-05-29 02:21:00,56.4,56.4,30.09,NNW,336,0.0,0.0,100,0.04,,---,0.04,VWS V14.01,2013-05-29 06:21:00,
2013-05-29 02:26:00,56.4,56.4,30.09,WNW,288,0.0,0.0,100,0.04,,---,0.04,VWS V14.01,2013-05-29 06:26:00,
2013-05-29 02:31:00,56.4,56.4,30.09,South,169,0.0,2.7,100,0.08,,---,0.08,VWS V14.01,2013-05-29 06:31:00,
2013-05-29 02:36:00,56.4,56.4,30.06,SSE,168,0.0,0.0,100,0.16,,---,0.16,VWS V14.01,2013-05-29 06:36:00,
2013-05-29 02:41:00,56.2,56.2,30.06,SSE,168,0.0,0.0,100,0.16,,---,0.16,VWS V14.01,2013-05-29 06:41:00,
2013-05-29 02:46:00,56.4,56.4,30.06,SSE,168,0.0,0.0,100,0.12,,---,0.16,VWS V14.01,2013-05-29 06:46:00,
2013-05-29 02:51:00,56.4,56.4,30.06,SSE,168,0.0,0.0,100,0.12,,---,0.16,VWS V14.01,2013-05-29 06:51:00,
2013-05-29 02:56:00,56.4,56.4,30.06,SSE,168,0.0,0.0,100,0.16,,---,0.20,VWS V14.01,2013-05-29 06:56:00,
2013-05-29 03:01:00,56.5,56.5,30.06,SSE,168,0.0,0.0,100,0.16,,---,0.20,VWS V14.01,2013-05-29 07:01:00,
2013-05-29 03:06:00,56.7,56.7,30.09,South,169,0.0,0.0,100,0.16,,---,0.20,VWS V14.01,2013-05-29 07:06:00,
2013-05-29 03:11:00,56.7,56.7,30.09,South,185,0.0,0.0,100,0.20,,---,0.24,VWS V14.01,2013-05-29 07:11:00,
2013-05-29 03:16:00,56.5,56.5,30.09,WNW,288,4.5,4.5,100,0.24,,---,0.28,VWS V14.01,2013-05-29 07:16:00,
2013-05-29 03:21:00,56.5,56.5,30.09,West,261,3.6,3.6,100,0.28,,---,0.31,VWS V14.01,2013-05-29 07:21:00,
2013-05-29 03:26:00,56.7,56.7,30.09,West,264,0.0,0.0,100,0.31,,---,0.35,VWS V14.01,2013-05-29 07:26:00,
2013-05-29 03:31:00,56.7,56.7,30.09,NW,308,0.0,0.0,100,0.28,,---,0.35,VWS V14.01,2013-05-29 07:31:00,
2013-05-29 03:36:00,56.7,56.7,30.09,NW,308,0.0,0.0,100,0.20,,---,0.35,VWS V14.01,2013-05-29 07:36:00,
2013-05-29 03:41:00,56.5,56.5,30.09,NW,308,0.0,0.0,100,0.20,,---,0.35,VWS V14.01,2013-05-29 07:41:00,
2013-05-29 03:46:00,56.5,56.5,30.09,NW,310,0.0,0.0,100,0.20,,---,0.35,VWS V14.01,2013-05-29 07:46:00,
2013-05-29 03:51:00,56.5,56.5,30.06,NW,310,0.0,0.0,100,0.20,,---,0.35,VWS V14.01,2013-05-29 07:51:00,
2013-05-29 03:56:00,56.5,56.5,30.06,NW,310,0.0,0.0,100,0.20,,---,0.39,VWS V14.01,2013-05-29 07:56:00,
2013-05-29 04:01:00,56.5,56.5,30.06,NW,310,0.0,0.0,100,0.20,,---,0.39,VWS V14.01,2013-05-29 08:01:00,
2013-05-29 04:06:00,56.5,56.5,30.06,NW,310,0.0,0.0,100,0.20,,---,0.39,VWS V14.01,2013-05-29 08:06:00,
2013-05-29 04:11:00,56.5,56.5,30.06,WSW,251,0.0,0.0,100,0.16,,---,0.39,VWS V14.01,2013-05-29 08:11:00,
2013-05-29 04:16:00,56.5,56.5,30.06,WSW,254,0.0,2.7,100,0.12,,---,0.39,VWS V14.01,2013-05-29 08:16:00,
2013-05-29 04:21:00,56.7,56.7,30.06,WNW,298,0.0,0.0,100,0.08,,---,0.39,VWS V14.01,2013-05-29 08:21:00,
2013-05-29 04:26:00,56.7,56.7,30.06,WNW,298,0.0,0.0,100,0.04,,---,0.39,VWS V14.01,2013-05-29 08:26:00,
2013-05-29 04:31:00,56.7,56.7,30.06,WNW,298,0.0,0.0,100,0.04,,---,0.39,VWS V14.01,2013-05-29 08:31:00,
2013-05-29 04:36:00,56.7,56.7,30.06,WNW,298,0.0,0.0,100,0.04,,---,0.39,VWS V14.01,2013-05-29 08:36:00,
2013-05-29 04:41:00,56.7,56.7,30.06,WNW,298,0.0,0.0,100,0.04,,---,0.39,VWS V14.01,2013-05-29 08:41:00,
2013-05-29 04:46:00,56.7,56.7,30.06,WNW,298,0.0,0.0,100,0.04,,---,0.39,VWS V14.01,2013-05-29 08:46:00,
2013-05-29 04:51:00,56.9,56.9,30.06,WNW,298,0.0,0.0,100,0.04,,---,0.39,VWS V14.01,2013-05-29 08:51:00,
2013-05-29 04:56:00,56.9,56.9,30.06,WNW,298,0.0,0.0,100,0.00,,---,0.39,VWS V14.01,2013-05-29 08:56:00,
2013-05-29 05:01:00,56.9,56.9,30.06,WNW,298,0.0,0.0,100,0.00,,---,0.39,VWS V14.01,2013-05-29 09:01:00,
2013-05-29 05:06:00,56.9,56.9,30.06,WNW,298,0.0,0.0,100,0.00,,---,0.39,VWS V14.01,2013-05-29 09:06:00,
2013-05-29 05:11:00,56.9,56.9,30.06,WNW,298,0.0,0.0,100,0.00,,---,0.39,VWS V14.01,2013-05-29 09:11:00,
2013-05-29 05:16:00,56.9,56.9,30.06,WNW,298,0.0,0.0,100,0.00,,---,0.39,VWS V14.01,2013-05-29 09:16:00,
2013-05-29 05:21:00,56.9,56.9,30.03,WNW,298,0.0,0.0,100,0.00,,---,0.39,VWS V14.01,2013-05-29 09:21:00,
2013-05-29 05:26:00,56.9,56.9,30.03,WNW,298,0.0,0.0,100,0.00,,---,0.39,VWS V14.01,2013-05-29 09:26:00,
2013-05-29 05:31:00,56.9,56.9,30.03,WNW,298,0.0,0.0,100,0.00,,---,0.39,VWS V14.01,2013-05-29 09:31:00,
2013-05-29 05:36:00,57.1,57.1,30.06,WNW,298,0.0,0.0,100,0.00,,---,0.39,VWS V14.01,2013-05-29 09:36:00,
2013-05-29 05:41:00,57.1,57.1,30.06,WNW,298,0.0,0.0,100,0.00,,---,0.39,VWS V14.01,2013-05-29 09:41:00,
2013-05-29 05:46:00,57.1,57.1,30.06,WNW,298,0.0,0.0,100,0.00,,---,0.39,VWS V14.01,2013-05-29 09:46:00,
2013-05-29 05:51:00,57.1,57.1,30.06,WNW,298,0.0,0.0,100,0.00,,---,0.39,VWS V14.01,2013-05-29 09:51:00,
2013-05-29 05:56:00,57.1,57.1,30.06,WNW,298,0.0,0.0,100,0.00,,---,0.39,VWS V14.01,2013-05-29 09:56:00,
2013-05-29 06:01:00,57.1,57.1,30.06,WNW,298,0.0,0.0,100,0.00,,---,0.39,VWS V14.01,2013-05-29 10:01:00,
2013-05-29 06:06:00,57.1,57.1,30.06,WNW,298,0.0,0.0,100,0.00,,---,0.39,VWS V14.01,2013-05-29 10:06:00,
2013-05-29 06:11:00,57.1,57.1,30.06,WNW,298,0.0,0.0,100,0.00,,---,0.39,VWS V14.01,2013-05-29 10:11:00,
2013-05-29 06:16:00,57.1,57.1,30.06,WNW,298,0.0,0.0,100,0.00,,---,0.39,VWS V14.01,2013-05-29 10:16:00,
2013-05-29 06:21:00,57.1,57.1,30.06,WNW,296,0.0,0.0,100,0.00,,---,0.39,VWS V14.01,2013-05-29 10:21:00,
2013-05-29 06:26:00,57.1,57.1,30.06,WNW,296,0.0,0.0,100,0.00,,---,0.39,VWS V14.01,2013-05-29 10:26:00,
2013-05-29 06:31:00,57.3,57.3,30.06,WNW,296,0.0,0.0,100,0.00,,---,0.39,VWS V14.01,2013-05-29 10:31:00,
2013-05-29 06:36:00,57.3,57.3,30.06,WNW,296,0.0,0.0,100,0.00,,---,0.39,VWS V14.01,2013-05-29 10:36:00,
2013-05-29 06:41:00,57.4,57.4,30.06,WNW,296,0.0,0.0,100,0.00,,---,0.39,VWS V14.01,2013-05-29 10:41:00,
2013-05-29 06:46:00,57.4,57.4,30.06,WNW,296,0.0,0.0,100,0.00,,---,0.39,VWS V14.01,2013-05-29 10:46:00,
2013-05-29 06:51:00,57.4,57.4,30.06,WNW,296,0.0,0.0,100,0.00,,---,0.39,VWS V14.01,2013-05-29 10:51:00,
2013-05-29 06:56:00,57.4,57.4,30.06,WNW,296,0.0,0.0,100,0.00,,---,0.39,VWS V14.01,2013-05-29 10:56:00,
2013-05-29 07:01:00,57.4,57.4,30.06,WNW,296,0.0,0.0,100,0.00,,---,0.39,VWS V14.01,2013-05-29 11:01:00,
2013-05-29 07:06:00,57.6,57.6,30.06,WNW,296,0.0,0.0,100,0.00,,---,0.39,VWS V14.01,2013-05-29 11:06:00,
2013-05-29 07:11:00,57.6,57.6,30.06,WNW,296,0.0,0.0,100,0.00,,---,0.39,VWS V14.01,2013-05-29 11:11:00,
2013-05-29 07:16:00,57.6,57.6,30.06,WNW,296,0.0,0.0,100,0.00,,---,0.39,VWS V14.01,2013-05-29 11:16:00,
2013-05-29 07:21:00,57.8,57.8,30.06,WNW,296,0.0,0.0,100,0.00,,---,0.39,VWS V14.01,2013-05-29 11:21:00,
2013-05-29 07:26:00,58.2,58.2,30.06,WNW,296,0.0,0.0,100,0.00,,---,0.39,VWS V14.01,2013-05-29 11:26:00,
2013-05-29 07:31:00,58.3,58.3,30.06,WNW,296,0.0,0.0,100,0.00,,---,0.39,VWS V14.01,2013-05-29 11:31:00,
2013-05-29 07:36:00,58.3,58.3,30.06,WNW,296,0.0,0.0,100,0.00,,---,0.39,VWS V14.01,2013-05-29 11:36:00,
2013-05-29 07:41:00,58.5,58.5,30.06,WNW,296,0.0,0.0,100,0.00,,---,0.39,VWS V14.01,2013-05-29 11:41:00,
2013-05-29 07:46:00,58.7,58.7,30.06,WNW,302,0.0,0.0,100,0.00,,---,0.39,VWS V14.01,2013-05-29 11:46:00,
2013-05-29 07:51:00,58.9,58.9,30.06,NNW,327,0.0,0.0,100,0.00,,---,0.39,VWS V14.01,2013-05-29 11:51:00,
2013-05-29 07:56:00,58.9,58.9,30.06,NNW,327,0.0,0.0,100,0.00,,---,0.39,VWS V14.01,2013-05-29 11:56:00,
2013-05-29 08:01:00,59.2,59.2,30.06,NNW,327,0.0,0.0,100,0.00,,---,0.39,VWS V14.01,2013-05-29 12:01:00,
2013-05-29 08:06:00,58.9,58.9,30.06,NNW,327,0.0,0.0,100,0.00,,---,0.39,VWS V14.01,2013-05-29 12:06:00,
2013-05-29 08:11:00,59.2,59.2,30.06,NNW,327,0.0,0.0,100,0.00,,---,0.39,VWS V14.01,2013-05-29 12:11:00,
2013-05-29 08:16:00,59.1,59.1,30.06,NNW,327,0.0,0.0,100,0.00,,---,0.39,VWS V14.01,2013-05-29 12:16:00,
2013-05-29 08:21:00,59.4,59.4,30.06,NNW,327,0.0,0.0,100,0.00,,---,0.39,VWS V14.01,2013-05-29 12:21:00,
2013-05-29 08:26:00,59.4,59.4,30.06,NNW,344,0.0,0.0,100,0.00,,---,0.39,VWS V14.01,2013-05-29 12:26:00,
2013-05-29 08:31:00,59.6,59.6,30.06,NNW,344,0.0,0.0,100,0.00,,---,0.39,VWS V14.01,2013-05-29 12:31:00,
2013-05-29 08:36:00,59.6,59.6,30.06,ESE,103,0.0,0.0,100,0.00,,---,0.39,VWS V14.01,2013-05-29 12:36:00,
2013-05-29 08:41:00,59.8,59.8,30.06,ESE,104,0.0,0.0,100,0.00,,---,0.39,VWS V14.01,2013-05-29 12:41:00,
2013-05-29 08:46:00,60.0,60.0,30.06,ESE,109,0.0,0.0,100,0.00,,---,0.39,VWS V14.01,2013-05-29 12:46:00,
2013-05-29 08:51:00,60.0,60.0,30.09,ESE,109,0.0,0.0,100,0.00,,---,0.39,VWS V14.01,2013-05-29 12:51:00,
2013-05-29 08:56:00,60.0,60.0,30.09,ESE,109,0.0,0.0,100,0.00,,---,0.39,VWS V14.01,2013-05-29 12:56:00,
2013-05-29 09:01:00,60.0,60.0,30.09,East,83,0.0,0.0,100,0.00,,---,0.39,VWS V14.01,2013-05-29 13:01:00,
2013-05-29 09:06:00,60.0,60.0,30.06,ESE,123,0.0,0.0,100,0.00,,---,0.39,VWS V14.01,2013-05-29 13:06:00,
2013-05-29 09:11:00,60.0,60.0,30.06,SE,126,0.0,0.0,100,0.00,,---,0.39,VWS V14.01,2013-05-29 13:11:00,
2013-05-29 09:16:00,60.0,60.0,30.06,SE,126,0.0,0.0,100,0.00,,---,0.39,VWS V14.01,2013-05-29 13:16:00,
2013-05-29 09:21:00,60.0,60.0,30.09,SE,127,0.0,0.0,100,0.00,,---,0.39,VWS V14.01,2013-05-29 13:21:00,
2013-05-29 09:26:00,60.0,60.0,30.09,ESE,102,0.0,0.0,100,0.00,,---,0.39,VWS V14.01,2013-05-29 13:26:00,
2013-05-29 09:31:00,60.0,60.0,30.09,East,99,0.0,0.0,100,0.00,,---,0.39,VWS V14.01,2013-05-29 13:31:00,
2013-05-29 09:35:00,60.0,60.0,30.09,East,100,0.0,0.0,100,0.00,,---,0.39,VWS V14.01,2013-05-29 13:35:00,
2013-05-29 09:40:00,60.0,60.0,30.09,East,100,0.0,0.0,100,0.00,,---,0.39,VWS V14.01,2013-05-29 13:40:00,
2013-05-29 09:45:00,60.0,60.0,30.09,SSE,153,0.0,0.0,100,0.00,,---,0.39,VWS V14.01,2013-05-29 13:45:00,
2013-05-29 09:50:00,60.0,60.0,30.09,SSE,154,0.0,0.0,100,0.00,,---,0.39,VWS V14.01,2013-05-29 13:50:00,
2013-05-29 09:55:00,60.0,60.0,30.09,West,261,0.0,0.0,100,0.00,,---,0.39,VWS V14.01,2013-05-29 13:55:00,
2013-05-29 10:00:00,60.0,60.0,30.09,ESE,105,0.0,0.0,100,0.00,,---,0.39,VWS V14.01,2013-05-29 14:00:00,
2013-05-29 10:05:00,60.0,60.0,30.09,ESE,123,0.0,0.0,100,0.00,,---,0.39,VWS V14.01,2013-05-29 14:05:00,
2013-05-29 10:10:00,60.0,60.0,30.09,WSW,252,0.0,4.5,100,0.00,,---,0.39,VWS V14.01,2013-05-29 14:10:00,
2013-05-29 10:15:00,60.0,60.0,30.09,WSW,251,0.0,0.0,100,0.00,,---,0.39,VWS V14.01,2013-05-29 14:15:00,
2013-05-29 10:20:00,60.0,60.0,30.09,WSW,251,0.0,0.0,100,0.00,,---,0.39,VWS V14.01,2013-05-29 14:20:00,
2013-05-29 10:25:00,60.0,60.0,30.09,SW,235,0.0,0.0,100,0.00,,---,0.39,VWS V14.01,2013-05-29 14:25:00,
2013-05-29 10:30:00,60.0,60.0,30.09,SW,224,0.0,0.0,100,0.00,,---,0.39,VWS V14.01,2013-05-29 14:30:00,
2013-05-29 10:35:00,60.0,60.0,30.09,SSW,192,0.0,0.0,100,0.00,,---,0.39,VWS V14.01,2013-05-29 14:35:00,
2013-05-29 10:40:00,60.0,60.0,30.09,SSW,192,0.0,0.0,100,0.00,,---,0.39,VWS V14.01,2013-05-29 14:40:00,
2013-05-29 10:45:00,60.0,60.0,30.09,SSE,158,0.0,0.0,100,0.00,,---,0.39,VWS V14.01,2013-05-29 14:45:00,
2013-05-29 10:50:00,60.0,60.0,30.06,SSE,158,0.0,0.0,100,0.00,,---,0.39,VWS V14.01,2013-05-29 14:50:00,
2013-05-29 10:55:00,60.0,60.0,30.06,SSE,158,0.0,0.0,100,0.00,,---,0.39,VWS V14.01,2013-05-29 14:55:00,
2013-05-29 11:00:00,64.8,63.7,30.06,ESE,121,0.0,0.0,96,0.00,,---,0.39,VWS V14.01,2013-05-29 15:00:00,
2013-05-29 11:05:00,65.2,63.1,30.06,ESE,120,0.0,0.0,93,0.00,,---,0.39,VWS V14.01,2013-05-29 15:05:00,
2013-05-29 11:10:00,66.3,63.6,30.06,SE,140,0.0,0.0,91,0.00,,---,0.39,VWS V14.01,2013-05-29 15:10:00,
2013-05-29 11:15:00,67.9,64.8,30.06,SE,140,0.0,0.0,90,0.00,,---,0.39,VWS V14.01,2013-05-29 15:15:00,
2013-05-29 11:20:00,66.6,60.6,30.06,ENE,57,0.0,0.0,81,0.00,,---,0.39,VWS V14.01,2013-05-29 15:20:00,
2013-05-29 11:25:00,70.2,64.5,30.06,SW,217,0.0,0.0,82,0.00,,---,0.39,VWS V14.01,2013-05-29 15:25:00,
2013-05-29 11:30:00,71.3,63.0,30.06,West,259,0.0,0.0,75,0.00,,---,0.39,VWS V14.01,2013-05-29 15:30:00,
2013-05-29 11:35:00,70.2,61.5,30.06,ESE,120,3.6,4.0,74,0.00,,---,0.39,VWS V14.01,2013-05-29 15:35:00,
2013-05-29 11:40:00,71.1,62.4,30.06,ENE,76,0.0,0.0,74,0.00,,---,0.39,VWS V14.01,2013-05-29 15:40:00,
2013-05-29 11:45:00,70.9,61.1,30.06,SSE,166,3.6,4.9,71,0.00,,---,0.39,VWS V14.01,2013-05-29 15:45:00,
2013-05-29 11:50:00,72.9,63.0,30.06,SE,127,3.6,4.0,71,0.00,,---,0.39,VWS V14.01,2013-05-29 15:50:00,
2013-05-29 11:55:00,75.3,64.4,30.06,SW,226,3.6,4.5,69,0.00,,---,0.39,VWS V14.01,2013-05-29 15:55:00,
2013-05-29 12:00:00,76.0,63.4,30.06,West,272,0.0,4.0,65,0.00,,---,0.39,VWS V14.01,2013-05-29 16:00:00,
2013-05-29 12:05:00,76.3,63.7,30.06,SW,229,3.6,4.0,65,0.00,,---,0.39,VWS V14.01,2013-05-29 16:05:00,
2013-05-29 12:10:00,76.7,63.2,30.06,SSE,158,0.0,4.0,63,0.00,,---,0.39,VWS V14.01,2013-05-29 16:10:00,
2013-05-29 12:15:00,75.4,62.0,30.06,East,94,0.0,4.0,63,0.00,,---,0.39,VWS V14.01,2013-05-29 16:15:00,
2013-05-29 12:20:00,74.9,63.2,30.06,East,84,0.0,0.0,67,0.00,,---,0.39,VWS V14.01,2013-05-29 16:20:00,
2013-05-29 12:25:00,74.0,61.5,30.06,South,178,3.6,3.6,65,0.00,,---,0.39,VWS V14.01,2013-05-29 16:25:00,
2013-05-29 12:30:00,74.2,61.7,30.06,SE,137,0.0,0.0,65,0.00,,---,0.39,VWS V14.01,2013-05-29 16:30:00,
2013-05-29 12:35:00,75.1,61.6,30.06,ESE,106,3.1,3.1,63,0.00,,---,0.39,VWS V14.01,2013-05-29 16:35:00,
2013-05-29 12:40:00,74.9,61.9,30.06,SE,133,0.0,0.0,64,0.00,,---,0.39,VWS V14.01,2013-05-29 16:40:00,
2013-05-29 12:45:00,75.8,62.3,30.06,ENE,76,0.0,0.0,63,0.00,,---,0.39,VWS V14.01,2013-05-29 16:45:00,
2013-05-29 12:50:00,78.5,64.9,30.06,SE,139,0.0,0.0,63,0.00,,---,0.39,VWS V14.01,2013-05-29 16:50:00,
2013-05-29 12:55:00,78.0,63.9,30.06,NE,43,2.7,4.0,62,0.00,,---,0.39,VWS V14.01,2013-05-29 16:55:00,
2013-05-29 13:00:00,79.2,64.2,30.06,West,265,3.1,4.5,60,0.00,,---,0.39,VWS V14.01,2013-05-29 17:00:00,
2013-05-29 13:05:00,76.9,62.0,30.06,SE,146,2.7,2.7,60,0.00,,---,0.39,VWS V14.01,2013-05-29 17:05:00,
2013-05-29 13:10:00,78.3,65.2,30.06,ESE,110,0.0,0.0,64,0.00,,---,0.39,VWS V14.01,2013-05-29 17:10:00,
2013-05-29 13:15:00,79.0,64.9,30.06,SW,228,3.6,3.6,62,0.00,,---,0.39,VWS V14.01,2013-05-29 17:15:00,
2013-05-29 13:20:00,81.6,66.3,30.06,SE,124,0.0,0.0,60,0.00,,---,0.39,VWS V14.01,2013-05-29 17:20:00,
2013-05-29 13:25:00,83.2,67.4,30.06,SW,232,3.1,4.0,59,0.00,,---,0.39,VWS V14.01,2013-05-29 17:25:00,
2013-05-29 13:30:00,80.8,62.1,30.06,West,266,3.1,3.1,53,0.00,,---,0.39,VWS V14.01,2013-05-29 17:30:00,
2013-05-29 13:35:00,82.3,65.5,30.06,WSW,254,4.9,6.7,57,0.00,,---,0.39,VWS V14.01,2013-05-29 17:35:00,
2013-05-29 13:40:00,81.6,63.3,30.06,West,269,3.1,3.6,54,0.00,,---,0.39,VWS V14.01,2013-05-29 17:40:00,
2013-05-29 13:45:00,81.0,62.8,30.06,NNE,16,0.0,0.0,54,0.00,,---,0.39,VWS V14.01,2013-05-29 17:45:00,
2013-05-29 13:50:00,79.6,64.0,30.06,East,94,0.0,0.0,59,0.00,,---,0.39,VWS V14.01,2013-05-29 17:50:00,
2013-05-29 13:55:00,80.1,64.5,30.06,SE,128,0.0,0.0,59,0.00,,---,0.39,VWS V14.01,2013-05-29 17:55:00,
2013-05-29 14:00:00,81.4,63.7,30.06,South,182,0.0,0.0,55,0.00,,---,0.39,VWS V14.01,2013-05-29 18:00:00,
2013-05-29 14:05:00,81.2,63.5,30.06,SE,141,0.0,2.7,55,0.00,,---,0.39,VWS V14.01,2013-05-29 18:05:00,
2013-05-29 14:10:00,79.9,62.9,30.06,SE,137,2.7,2.7,56,0.00,,---,0.39,VWS V14.01,2013-05-29 18:10:00,
2013-05-29 14:15:00,80.5,62.3,30.06,ESE,123,0.0,0.0,54,0.00,,---,0.39,VWS V14.01,2013-05-29 18:15:00,
2013-05-29 14:20:00,79.6,64.0,30.03,NE,38,3.1,4.0,59,0.00,,---,0.39,VWS V14.01,2013-05-29 18:20:00,
2013-05-29 14:25:00,81.0,65.3,30.03,East,96,0.0,0.0,59,0.00,,---,0.39,VWS V14.01,2013-05-29 18:25:00,
2013-05-29 14:30:00,79.6,64.0,30.03,NE,42,2.7,3.1,59,0.00,,---,0.39,VWS V14.01,2013-05-29 18:30:00,
2013-05-29 14:35:00,81.4,65.2,30.03,NNE,14,0.0,0.0,58,0.00,,---,0.39,VWS V14.01,2013-05-29 18:35:00,
2013-05-29 14:40:00,84.6,66.2,30.03,West,269,4.0,4.5,54,0.00,,---,0.39,VWS V14.01,2013-05-29 18:40:00,
2013-05-29 14:45:00,86.2,64.8,30.03,West,272,5.8,6.3,49,0.00,,---,0.39,VWS V14.01,2013-05-29 18:45:00,
2013-05-29 14:50:00,86.6,65.2,30.03,West,269,0.0,0.0,49,0.00,,---,0.39,VWS V14.01,2013-05-29 18:50:00,
2013-05-29 14:55:00,85.7,64.9,30.03,SW,233,0.0,2.7,50,0.00,,---,0.39,VWS V14.01,2013-05-29 18:55:00,
2013-05-29 15:00:00,84.8,65.2,30.03,WSW,242,2.7,3.1,52,0.00,,---,0.39,VWS V14.01,2013-05-29 19:00:00,
2013-05-29 15:05:00,84.1,64.0,30.03,SW,222,0.0,0.0,51,0.00,,---,0.39,VWS V14.01,2013-05-29 19:05:00,
2013-05-29 15:10:00,83.4,63.9,30.03,SW,220,0.0,0.0,52,0.00,,---,0.39,VWS V14.01,2013-05-29 19:10:00,
2013-05-29 15:15:00,83.4,63.4,30.03,SSE,149,0.0,3.1,51,0.00,,---,0.39,VWS V14.01,2013-05-29 19:15:00,
2013-05-29 15:20:00,82.3,62.9,30.03,SSE,149,0.0,0.0,52,0.00,,---,0.39,VWS V14.01,2013-05-29 19:20:00,
2013-05-29 15:25:00,82.6,62.7,30.03,SSE,151,0.0,0.0,51,0.00,,---,0.39,VWS V14.01,2013-05-29 19:25:00,
2013-05-29 15:30:00,82.8,63.4,30.03,SSE,151,0.0,0.0,52,0.00,,---,0.39,VWS V14.01,2013-05-29 19:30:00,
2013-05-29 15:35:00,83.4,63.9,30.03,SSE,151,0.0,0.0,52,0.00,,---,0.39,VWS V14.01,2013-05-29 19:35:00,
2013-05-29 15:40:00,84.3,64.2,30.03,SSE,156,0.0,0.0,51,0.00,,---,0.39,VWS V14.01,2013-05-29 19:40:00,
2013-05-29 15:45:00,86.6,66.9,30.03,West,263,4.5,4.9,52,0.00,,---,0.39,VWS V14.01,2013-05-29 19:45:00,
2013-05-29 15:50:00,86.4,65.6,30.03,WNW,290,3.1,3.1,50,0.00,,---,0.39,VWS V14.01,2013-05-29 19:50:00,
2013-05-29 15:55:00,85.2,64.4,30.03,SW,230,3.1,3.1,50,0.00,,---,0.39,VWS V14.01,2013-05-29 19:55:00,
2013-05-29 16:00:00,84.6,65.1,30.03,NNW,343,0.0,0.0,52,0.00,,---,0.39,VWS V14.01,2013-05-29 20:00:00,
2013-05-29 16:05:00,84.6,65.6,30.03,WNW,298,0.0,0.0,53,0.00,,---,0.39,VWS V14.01,2013-05-29 20:05:00,
2013-05-29 16:10:00,84.3,66.3,30.03,WNW,289,0.0,0.0,55,0.00,,---,0.39,VWS V14.01,2013-05-29 20:10:00,
2013-05-29 16:15:00,85.9,66.2,30.03,North,8,0.0,0.0,52,0.00,,---,0.39,VWS V14.01,2013-05-29 20:15:00,
2013-05-29 16:20:00,86.4,66.2,30.03,WSW,250,0.0,0.0,51,0.00,,---,0.39,VWS V14.01,2013-05-29 20:20:00,
2013-05-29 16:25:00,87.1,66.3,30.03,West,279,5.4,5.8,50,0.00,,---,0.39,VWS V14.01,2013-05-29 20:25:00,
2013-05-29 16:30:00,87.9,66.3,30.03,SW,215,4.5,4.9,49,0.00,,---,0.39,VWS V14.01,2013-05-29 20:30:00,
2013-05-29 16:35:00,86.4,64.4,30.03,West,260,4.5,4.9,48,0.00,,---,0.39,VWS V14.01,2013-05-29 20:35:00,
2013-05-29 16:40:00,85.7,65.5,30.03,West,265,3.1,3.1,51,0.00,,---,0.39,VWS V14.01,2013-05-29 20:40:00,
2013-05-29 16:45:00,85.0,63.7,30.03,West,279,6.3,6.3,49,0.00,,---,0.39,VWS V14.01,2013-05-29 20:45:00,
2013-05-29 16:50:00,85.9,63.9,30.03,WSW,242,7.4,8.3,48,0.00,,---,0.39,VWS V14.01,2013-05-29 20:50:00,
2013-05-29 16:55:00,86.8,64.8,30.03,WNW,290,5.4,6.7,48,0.00,,---,0.39,VWS V14.01,2013-05-29 20:55:00,
2013-05-29 17:00:00,86.4,63.8,30.03,WSW,250,5.4,6.9,47,0.00,,---,0.39,VWS V14.01,2013-05-29 21:00:00,
2013-05-29 17:05:00,86.2,62.4,30.03,WSW,255,6.9,9.6,45,0.00,,---,0.39,VWS V14.01,2013-05-29 21:05:00,
2013-05-29 17:10:00,86.1,62.3,30.03,WSW,246,11.2,13.4,45,0.00,,---,0.39,VWS V14.01,2013-05-29 21:10:00,
2013-05-29 17:15:00,85.7,61.9,30.03,WSW,254,12.5,14.8,45,0.00,,---,0.39,VWS V14.01,2013-05-29 21:15:00,
2013-05-29 17:20:00,85.2,61.5,30.03,West,274,11.0,11.0,45,0.00,,---,0.39,VWS V14.01,2013-05-29 21:20:00,
2013-05-29 17:25:00,84.8,61.1,30.03,West,278,13.0,13.0,45,0.00,,---,0.39,VWS V14.01,2013-05-29 21:25:00,
2013-05-29 17:30:00,84.4,60.8,30.03,West,273,11.0,11.2,45,0.00,,---,0.39,VWS V14.01,2013-05-29 21:30:00,
2013-05-29 17:35:00,85.0,61.3,30.03,WSW,242,6.7,6.7,45,0.00,,---,0.39,VWS V14.01,2013-05-29 21:35:00,
2013-05-29 17:40:00,85.3,61.6,30.03,SW,230,4.5,4.5,45,0.00,,---,0.39,VWS V14.01,2013-05-29 21:40:00,
2013-05-29 17:45:00,85.5,61.8,30.03,SW,219,3.6,4.0,45,0.00,,---,0.39,VWS V14.01,2013-05-29 21:45:00,
2013-05-29 17:50:00,85.2,61.5,30.03,West,264,6.7,6.9,45,0.00,,---,0.39,VWS V14.01,2013-05-29 21:50:00,
2013-05-29 17:55:00,84.6,61.0,30.03,WSW,237,9.6,9.6,45,0.00,,---,0.39,VWS V14.01,2013-05-29 21:55:00,
2013-05-29 18:00:00,84.3,60.6,30.03,West,263,9.6,10.1,45,0.00,,---,0.39,VWS V14.01,2013-05-29 22:00:00,
2013-05-29 18:05:00,83.2,60.3,30.03,West,274,5.4,6.9,46,0.00,,---,0.39,VWS V14.01,2013-05-29 22:05:00,
2013-05-29 18:10:00,83.0,60.1,30.03,SW,216,5.4,6.7,46,0.00,,---,0.39,VWS V14.01,2013-05-29 22:10:00,
2013-05-29 18:15:00,82.8,59.9,30.03,WSW,239,6.3,6.3,46,0.00,,---,0.39,VWS V14.01,2013-05-29 22:15:00,
2013-05-29 18:20:00,82.3,59.5,30.03,WSW,254,4.5,5.8,46,0.00,,---,0.39,VWS V14.01,2013-05-29 22:20:00,
2013-05-29 18:25:00,82.1,60.5,30.03,NW,305,6.3,8.7,48,0.00,,---,0.39,VWS V14.01,2013-05-29 22:25:00,
2013-05-29 18:30:00,81.9,60.3,30.03,SW,233,3.1,3.6,48,0.00,,---,0.39,VWS V14.01,2013-05-29 22:30:00,
2013-05-29 18:35:00,81.7,60.2,30.03,SW,233,3.6,4.5,48,0.00,,---,0.39,VWS V14.01,2013-05-29 22:35:00,
2013-05-29 18:40:00,81.4,59.8,30.03,WSW,251,6.7,7.8,48,0.00,,---,0.39,VWS V14.01,2013-05-29 22:40:00,
2013-05-29 18:45:00,80.8,59.9,30.03,WSW,250,7.4,7.4,49,0.00,,---,0.39,VWS V14.01,2013-05-29 22:45:00,
2013-05-29 18:50:00,80.3,58.8,30.03,WSW,255,8.3,8.3,48,0.00,,---,0.39,VWS V14.01,2013-05-29 22:50:00,
2013-05-29 18:55:00,80.1,59.2,30.03,SW,230,7.4,7.4,49,0.00,,---,0.39,VWS V14.01,2013-05-29 22:55:00,
2013-05-29 19:00:00,79.9,59.1,30.03,WSW,241,8.3,8.3,49,0.00,,---,0.35,VWS V14.01,2013-05-29 23:00:00,
2013-05-29 19:05:00,79.8,58.9,30.03,SW,228,4.9,6.7,49,0.00,,---,0.39,VWS V14.01,2013-05-29 23:05:00,
2013-05-29 19:10:00,79.6,58.8,30.03,WSW,239,4.0,6.3,49,0.00,,---,0.39,VWS V14.01,2013-05-29 23:10:00,
2013-05-29 19:15:00,79.4,58.6,30.03,WSW,257,7.4,10.1,49,0.00,,---,0.39,VWS V14.01,2013-05-29 23:15:00,
2013-05-29 19:20:00,79.0,58.3,30.03,West,261,6.3,6.9,49,0.00,,---,0.39,VWS V14.01,2013-05-29 23:20:00,
2013-05-29 19:25:00,78.3,58.2,30.03,WSW,252,4.9,7.4,50,0.00,,---,0.39,VWS V14.01,2013-05-29 23:25:00,
2013-05-29 19:30:00,77.8,57.7,30.03,WSW,257,10.1,10.1,50,0.00,,---,0.39,VWS V14.01,2013-05-29 23:30:00,
2013-05-29 19:35:00,77.8,57.7,30.03,West,262,6.7,6.9,50,0.00,,---,0.39,VWS V14.01,2013-05-29 23:35:00,
2013-05-29 19:40:00,77.6,57.5,30.03,WSW,257,7.8,11.0,50,0.00,,---,0.39,VWS V14.01,2013-05-29 23:40:00,
2013-05-29 19:45:00,77.4,57.3,30.03,WSW,252,5.8,6.7,50,0.00,,---,0.39,VWS V14.01,2013-05-29 23:45:00,
2013-05-29 19:50:00,77.1,57.0,30.03,SW,229,6.9,6.9,50,0.00,,---,0.39,VWS V14.01,2013-05-29 23:50:00,
2013-05-29 19:55:00,76.9,56.8,30.03,SW,232,4.9,8.3,50,0.00,,---,0.39,VWS V14.01,2013-05-29 23:55:00,
2013-05-29 20:00:00,76.9,56.8,30.03,WSW,244,6.9,7.8,50,0.00,,---,0.39,VWS V14.01,2013-05-30 00:00:00,
2013-05-29 20:05:00,76.5,56.5,30.03,West,261,7.4,7.4,50,0.00,,---,0.39,VWS V14.01,2013-05-30 00:05:00,
2013-05-29 20:10:00,76.2,56.2,30.03,WSW,239,3.6,4.0,50,0.00,,---,0.39,VWS V14.01,2013-05-30 00:10:00,
2013-05-29 20:15:00,75.8,55.9,30.03,SW,232,0.0,3.6,50,0.00,,---,0.39,VWS V14.01,2013-05-30 00:15:00,
2013-05-29 20:19:00,75.1,55.7,30.03,NW,305,3.6,3.6,51,0.00,,---,0.39,VWS V14.01,2013-05-30 00:19:00,
2013-05-29 20:25:00,74.4,56.1,30.03,WNW,288,0.0,0.0,53,0.00,,---,0.39,VWS V14.01,2013-05-30 00:25:00,
2013-05-29 20:29:00,73.6,57.0,30.03,West,270,4.0,4.0,56,0.00,,---,0.39,VWS V14.01,2013-05-30 00:29:00,
2013-05-29 20:34:00,73.1,57.0,30.03,West,264,3.6,3.6,57,0.00,,---,0.39,VWS V14.01,2013-05-30 00:34:00,
2013-05-29 20:39:00,72.6,57.9,30.03,West,267,3.6,4.5,60,0.00,,---,0.39,VWS V14.01,2013-05-30 00:39:00,
2013-05-29 20:44:00,72.0,57.8,30.03,West,271,3.1,3.6,61,0.00,,---,0.39,VWS V14.01,2013-05-30 00:44:00,
2013-05-29 20:49:00,71.3,57.6,30.03,West,270,3.1,4.5,62,0.00,,---,0.39,VWS V14.01,2013-05-30 00:49:00,
2013-05-29 20:54:00,70.9,57.3,30.03,West,267,4.0,4.5,62,0.00,,---,0.39,VWS V14.01,2013-05-30 00:54:00,
2013-05-29 20:59:00,70.8,57.1,30.03,West,267,3.1,3.1,62,0.00,,---,0.39,VWS V14.01,2013-05-30 00:59:00,
2013-05-29 21:04:00,70.4,57.2,30.03,WSW,255,2.7,2.7,63,0.00,,---,0.39,VWS V14.01,2013-05-30 01:04:00,
2013-05-29 21:09:00,69.7,57.0,30.03,NW,317,4.0,4.0,64,0.00,,---,0.39,VWS V14.01,2013-05-30 01:09:00,
2013-05-29 21:14:00,69.1,57.3,30.03,WNW,303,0.0,4.0,66,0.00,,---,0.39,VWS V14.01,2013-05-30 01:14:00,
2013-05-29 21:19:00,68.6,57.6,30.03,West,273,4.5,4.5,68,0.00,,---,0.39,VWS V14.01,2013-05-30 01:19:00,
2013-05-29 21:24:00,68.2,57.7,30.03,West,268,4.0,4.0,69,0.00,,---,0.39,VWS V14.01,2013-05-30 01:24:00,
2013-05-29 21:29:00,68.1,57.5,30.03,West,276,3.6,4.0,69,0.00,,---,0.39,VWS V14.01,2013-05-30 01:29:00,
2013-05-29 21:34:00,67.9,57.3,30.06,West,272,3.1,4.9,69,0.00,,---,0.39,VWS V14.01,2013-05-30 01:34:00,
2013-05-29 21:39:00,67.7,58.0,30.06,NW,314,4.0,4.5,71,0.00,,---,0.39,VWS V14.01,2013-05-30 01:39:00,
2013-05-29 21:44:00,67.5,58.2,30.06,WNW,293,3.6,4.9,72,0.00,,---,0.39,VWS V14.01,2013-05-30 01:44:00,
2013-05-29 21:49:00,67.3,58.8,30.06,NW,320,4.5,4.9,74,0.00,,---,0.39,VWS V14.01,2013-05-30 01:49:00,
2013-05-29 21:54:00,67.0,59.2,30.06,West,278,3.6,3.6,76,0.00,,---,0.39,VWS V14.01,2013-05-30 01:54:00,
2013-05-29 21:59:00,66.8,59.4,30.06,WNW,296,4.0,5.4,77,0.00,,---,0.39,VWS V14.01,2013-05-30 01:59:00,
2013-05-29 22:04:00,66.6,59.5,30.06,NW,313,3.1,3.6,78,0.00,,---,0.39,VWS V14.01,2013-05-30 02:04:00,
2013-05-29 22:09:00,66.4,59.7,30.06,WNW,303,0.0,0.0,79,0.00,,---,0.39,VWS V14.01,2013-05-30 02:09:00,
2013-05-29 22:14:00,66.4,59.7,30.06,West,276,3.6,4.0,79,0.00,,---,0.39,VWS V14.01,2013-05-30 02:14:00,
2013-05-29 22:19:00,66.4,59.4,30.06,WNW,297,4.5,4.5,78,0.00,,---,0.39,VWS V14.01,2013-05-30 02:19:00,
2013-05-29 22:24:00,66.4,59.0,30.06,NW,309,4.0,4.0,77,0.00,,---,0.39,VWS V14.01,2013-05-30 02:24:00,
2013-05-29 22:29:00,66.3,58.8,30.06,West,274,3.1,4.0,77,0.00,,---,0.39,VWS V14.01,2013-05-30 02:29:00,
2013-05-29 22:34:00,66.1,58.3,30.06,WNW,286,3.1,4.5,76,0.00,,---,0.39,VWS V14.01,2013-05-30 02:34:00,
2013-05-29 22:39:00,65.9,58.1,30.06,NW,319,3.1,4.0,76,0.00,,---,0.39,VWS V14.01,2013-05-30 02:39:00,
2013-05-29 22:44:00,65.7,58.7,30.06,NW,310,4.0,4.5,78,0.00,,---,0.39,VWS V14.01,2013-05-30 02:44:00,
2013-05-29 22:49:00,65.4,58.7,30.09,NW,310,3.6,3.6,79,0.00,,---,0.39,VWS V14.01,2013-05-30 02:49:00,
2013-05-29 22:54:00,65.2,59.2,30.09,NW,312,3.1,4.5,81,0.00,,---,0.39,VWS V14.01,2013-05-30 02:54:00,
2013-05-29 22:59:00,65.0,59.7,30.09,NW,318,4.0,4.0,83,0.00,,---,0.39,VWS V14.01,2013-05-30 02:59:00,
2013-05-29 23:04:00,65.0,59.7,30.09,NW,313,0.0,0.0,83,0.00,,---,0.39,VWS V14.01,2013-05-30 03:04:00,
2013-05-29 23:09:00,64.8,59.5,30.09,WNW,301,0.0,0.0,83,0.00,,---,0.39,VWS V14.01,2013-05-30 03:09:00,
2013-05-29 23:14:00,64.6,59.7,30.09,West,273,3.6,4.5,84,0.00,,---,0.39,VWS V14.01,2013-05-30 03:14:00,
2013-05-29 23:19:00,64.5,59.5,30.09,West,276,3.6,4.5,84,0.00,,---,0.39,VWS V14.01,2013-05-30 03:19:00,
2013-05-29 23:24:00,64.3,59.0,30.09,West,276,3.1,3.1,83,0.00,,---,0.39,VWS V14.01,2013-05-30 03:24:00,
2013-05-29 23:29:00,64.3,58.7,30.09,West,278,3.6,4.5,82,0.00,,---,0.39,VWS V14.01,2013-05-30 03:29:00,
2013-05-29 23:34:00,64.1,58.8,30.09,West,279,0.0,0.0,83,0.00,,---,0.39,VWS V14.01,2013-05-30 03:34:00,
2013-05-29 23:39:00,63.9,59.0,30.09,West,279,0.0,0.0,84,0.00,,---,0.39,VWS V14.01,2013-05-30 03:39:00,
2013-05-29 23:44:00,63.6,59.3,30.09,West,279,0.0,0.0,86,0.00,,---,0.39,VWS V14.01,2013-05-30 03:44:00,
2013-05-29 23:49:00,63.6,59.6,30.09,NW,313,0.0,0.0,87,0.00,,---,0.39,VWS V14.01,2013-05-30 03:49:00,
2013-05-29 23:54:00,63.4,59.5,30.09,NW,306,0.0,0.0,87,0.00,,---,0.39,VWS V14.01,2013-05-30 03:54:00,
2013-05-29 23:59:00,63.2,59.6,30.09,NW,305,0.0,0.0,88,0.00,,---,0.39,VWS V14.01,2013-05-30 03:59:00,